SHU1987 USSS-ULLI

Flight info

Callsign SHU1987
Flight time 2h 20m
Altitude 340
Route LUNAG N170 PENUS T762 GEBSI M60 ANDAT/K0850F360 M60 APSAS L259 PRIBI P979 BEPOL
Aircraft T154/M-SDFGIRY/S

Departure

Time 2026-05-06 12:20
Airport Koltsovo Airport (USSS)

Arrival

Time 2026-05-06 14:41
Airport Pulkovo Airport (ULLI)
Time Latitude Longitude Altitude Speed Heading
2026-05-06 10:53 56.74789 60.79476 780 ft 0 kts
2026-05-06 12:09 56.74790 60.79476 780 ft 0 kts 360°
2026-05-06 12:09 56.74797 60.79476 780 ft 2 kts 360°
2026-05-06 12:09 56.74829 60.79484 780 ft 5 kts 26°
2026-05-06 12:09 56.74849 60.79554 780 ft 6 kts 83°
2026-05-06 12:10 56.74852 60.79642 780 ft 7 kts 89°
2026-05-06 12:10 56.74852 60.79734 780 ft 7 kts 90°
2026-05-06 12:10 56.74852 60.79829 780 ft 7 kts 90°
2026-05-06 12:10 56.74851 60.79937 780 ft 9 kts 91°
2026-05-06 12:11 56.74851 60.80049 780 ft 7 kts 91°
2026-05-06 12:11 56.74823 60.80121 780 ft 7 kts 159°
2026-05-06 12:11 56.74768 60.80130 780 ft 8 kts 179°
2026-05-06 12:11 56.74707 60.80131 780 ft 8 kts 179°
2026-05-06 12:12 56.74665 60.80193 780 ft 8 kts 105°
2026-05-06 12:12 56.74661 60.80307 780 ft 9 kts 90°
2026-05-06 12:12 56.74661 60.80428 780 ft 9 kts 90°
2026-05-06 12:12 56.74661 60.80556 780 ft 10 kts 90°
2026-05-06 12:13 56.74661 60.80689 780 ft 10 kts 90°
2026-05-06 12:13 56.74661 60.80826 781 ft 10 kts 90°
2026-05-06 12:13 56.74660 60.80971 781 ft 11 kts 90°
2026-05-06 12:13 56.74660 60.81122 781 ft 11 kts 90°
2026-05-06 12:14 56.74660 60.81282 780 ft 13 kts 90°
2026-05-06 12:14 56.74660 60.81452 780 ft 13 kts 90°
2026-05-06 12:14 56.74660 60.81633 780 ft 14 kts 90°
2026-05-06 12:14 56.74660 60.81798 780 ft 12 kts 90°
2026-05-06 12:15 56.74659 60.81960 780 ft 12 kts 90°
2026-05-06 12:15 56.74660 60.82097 780 ft 8 kts 90°
2026-05-06 12:15 56.74634 60.82185 780 ft 7 kts 155°
2026-05-06 12:15 56.74580 60.82200 780 ft 7 kts 179°
2026-05-06 12:16 56.74523 60.82200 780 ft 8 kts 180°
2026-05-06 12:16 56.74465 60.82200 780 ft 8 kts 181°
2026-05-06 12:16 56.74394 60.82194 780 ft 11 kts 184°
2026-05-06 12:16 56.74310 60.82183 780 ft 10 kts 185°
2026-05-06 12:17 56.74224 60.82171 780 ft 13 kts 184°
2026-05-06 12:17 56.74129 60.82161 780 ft 9 kts 184°
2026-05-06 12:17 56.74075 60.82120 780 ft 7 kts 240°
2026-05-06 12:17 56.74068 60.82025 780 ft 5 kts 272°
2026-05-06 12:18 56.74068 60.82022 780 ft 0 kts 273°
2026-05-06 12:19 56.74068 60.82021 780 ft 0 kts 273°
2026-05-06 12:19 56.74078 60.81770 780 ft 48 kts 274°
2026-05-06 12:19 56.74118 60.80773 781 ft 105 kts 274°
2026-05-06 12:19 56.74183 60.79156 795 ft 148 kts 271°
2026-05-06 12:20 56.74267 60.77253 1144 ft 152 kts 274°
2026-05-06 12:20 56.74408 60.75259 1489 ft 158 kts 275°
2026-05-06 12:20 56.74536 60.73227 1873 ft 161 kts 273°
2026-05-06 12:20 56.74620 60.71125 2265 ft 164 kts 272°
2026-05-06 12:21 56.74688 60.69027 2631 ft 167 kts 271°
2026-05-06 12:21 56.74711 60.66799 2913 ft 176 kts 269°
2026-05-06 12:21 56.74728 60.64487 3234 ft 181 kts 269°
2026-05-06 12:21 56.74741 60.62108 3533 ft 188 kts 269°
2026-05-06 12:22 56.74763 60.59548 3745 ft 208 kts 270°
2026-05-06 12:22 56.74823 60.56641 3912 ft 239 kts 274°
2026-05-06 12:22 56.75052 60.53449 4370 ft 257 kts 280°
2026-05-06 12:22 56.75411 60.50139 4935 ft 269 kts 281°
2026-05-06 12:23 56.75787 60.46622 5459 ft 283 kts 280°
2026-05-06 12:23 56.76175 60.42941 6010 ft 295 kts 281°
2026-05-06 12:23 56.76576 60.39182 6579 ft 305 kts 281°
2026-05-06 12:23 56.76992 60.35229 7219 ft 312 kts 281°
2026-05-06 12:24 56.77401 60.31260 7838 ft 318 kts 280°
2026-05-06 12:24 56.77835 60.27156 8363 ft 328 kts 280°
2026-05-06 12:24 56.78260 60.22985 8851 ft 337 kts 280°
2026-05-06 12:24 56.78681 60.18607 9401 ft 345 kts 279°
2026-05-06 12:25 56.79038 60.14204 9862 ft 351 kts 276°
2026-05-06 12:25 56.79271 60.09686 10252 ft 348 kts 276°
2026-05-06 12:25 56.79534 60.05178 10747 ft 351 kts 276°
2026-05-06 12:25 56.79791 60.00666 11211 ft 353 kts 276°
2026-05-06 12:26 56.80057 59.96082 11729 ft 356 kts 276°
2026-05-06 12:26 56.80315 59.91469 12143 ft 360 kts 276°
2026-05-06 12:26 56.80564 59.86837 12574 ft 360 kts 276°
2026-05-06 12:26 56.80814 59.82167 13040 ft 363 kts 276°
2026-05-06 12:27 56.81075 59.77462 13520 ft 365 kts 276°
2026-05-06 12:27 56.81329 59.72736 13998 ft 367 kts 276°
2026-05-06 12:27 56.81595 59.68004 14533 ft 369 kts 276°
2026-05-06 12:27 56.81867 59.63230 15072 ft 374 kts 276°
2026-05-06 12:28 56.82143 59.58400 15636 ft 376 kts 276°
2026-05-06 12:28 56.82428 59.53458 16167 ft 380 kts 276°
2026-05-06 12:28 56.82708 59.48562 16691 ft 382 kts 276°
2026-05-06 12:28 56.82985 59.43659 17216 ft 385 kts 276°
2026-05-06 12:29 56.83270 59.38572 17772 ft 388 kts 276°
2026-05-06 12:29 56.83543 59.33645 18306 ft 391 kts 275°
2026-05-06 12:29 56.83822 59.28562 18766 ft 395 kts 275°
2026-05-06 12:29 56.84101 59.23447 19240 ft 396 kts 275°
2026-05-06 12:30 56.84378 59.18328 19748 ft 399 kts 275°
2026-05-06 12:30 56.84655 59.13177 20273 ft 403 kts 275°
2026-05-06 12:30 56.84986 59.07935 20851 ft 404 kts 281°
2026-05-06 12:30 56.85848 59.03070 21466 ft 403 kts 295°
2026-05-06 12:31 56.87380 58.98658 22075 ft 403 kts 310°
2026-05-06 12:31 56.89374 58.95089 22656 ft 402 kts 319°
2026-05-06 12:31 56.91518 58.91563 23156 ft 405 kts 316°
2026-05-06 12:31 56.93562 58.87830 23689 ft 406 kts 314°
2026-05-06 12:32 56.95495 58.83982 24126 ft 409 kts 312°
2026-05-06 12:32 56.97418 58.79969 24606 ft 411 kts 311°
2026-05-06 12:32 56.99319 58.75920 25092 ft 413 kts 311°
2026-05-06 12:32 57.01220 58.71836 25577 ft 414 kts 310°
2026-05-06 12:33 57.03126 58.67728 26062 ft 415 kts 310°
2026-05-06 12:33 57.05026 58.63624 26542 ft 416 kts 310°
2026-05-06 12:33 57.06938 58.59487 27024 ft 416 kts 310°
2026-05-06 12:33 57.08828 58.55391 27495 ft 417 kts 310°
2026-05-06 12:34 57.10711 58.51306 27942 ft 417 kts 311°
2026-05-06 12:34 57.12628 58.47174 28307 ft 420 kts 311°
2026-05-06 12:34 57.14571 58.42971 28767 ft 420 kts 311°
2026-05-06 12:34 57.16466 58.38854 29272 ft 418 kts 310°
2026-05-06 12:35 57.18328 58.34788 29752 ft 417 kts 310°
2026-05-06 12:35 57.19716 58.31746 30065 ft 416 kts 310°
2026-05-06 12:35 57.23981 58.22356 30942 ft 416 kts 310°
2026-05-06 12:36 57.25839 58.18260 31315 ft 417 kts 310°
2026-05-06 12:36 57.27661 58.14244 31674 ft 417 kts 310°
2026-05-06 12:36 57.29563 58.10049 32019 ft 418 kts 310°
2026-05-06 12:36 57.31462 58.05851 31883 ft 432 kts 310°
2026-05-06 12:37 57.33432 58.01489 31808 ft 443 kts 310°
2026-05-06 12:37 57.35444 57.97024 31817 ft 451 kts 310°
2026-05-06 12:37 57.37423 57.92626 32234 ft 449 kts 310°
2026-05-06 12:37 57.39381 57.88266 32654 ft 446 kts 310°
2026-05-06 12:38 57.41392 57.83777 33137 ft 442 kts 310°
2026-05-06 12:38 57.43337 57.79430 33567 ft 440 kts 310°
2026-05-06 12:38 57.45321 57.74989 33793 ft 442 kts 310°
2026-05-06 12:38 57.47311 57.70522 33761 ft 451 kts 310°
2026-05-06 12:39 57.50903 57.60999 33834 ft 461 kts 297°
2026-05-06 12:39 57.53753 57.50219 33778 ft 469 kts 297°
2026-05-06 12:40 57.56737 57.39392 33769 ft 476 kts 297°
2026-05-06 12:40 57.59607 57.28520 33762 ft 475 kts 296°
2026-05-06 12:41 57.62482 57.17566 33767 ft 475 kts 296°
2026-05-06 12:41 57.65371 57.06596 33761 ft 475 kts 296°
2026-05-06 12:42 57.68255 56.95609 33764 ft 475 kts 296°
2026-05-06 12:42 57.71130 56.84607 33759 ft 475 kts 296°
2026-05-06 12:43 57.73991 56.73607 33761 ft 475 kts 296°
2026-05-06 12:43 57.76831 56.62631 33760 ft 475 kts 296°
2026-05-06 12:44 57.79649 56.51688 33757 ft 475 kts 296°
2026-05-06 12:44 57.82439 56.40796 33761 ft 475 kts 296°
2026-05-06 12:45 57.85024 56.30658 33749 ft 475 kts 295°
2026-05-06 12:46 57.91840 56.03676 33765 ft 475 kts 295°
2026-05-06 12:47 57.95163 55.93273 33779 ft 477 kts 306°
2026-05-06 12:47 57.98887 55.83280 33767 ft 474 kts 304°
2026-05-06 12:48 58.06279 55.62326 33758 ft 476 kts 303°
2026-05-06 12:49 58.09914 55.51857 33762 ft 475 kts 303°
2026-05-06 12:49 58.13533 55.41470 33766 ft 475 kts 304°
2026-05-06 12:50 58.17025 55.31366 33748 ft 475 kts 303°
2026-05-06 12:50 58.20680 55.20684 33766 ft 475 kts 303°
2026-05-06 12:51 58.24303 55.10062 33763 ft 475 kts 303°
2026-05-06 12:51 58.27928 54.99391 33762 ft 475 kts 303°
2026-05-06 12:52 58.31538 54.88717 33759 ft 475 kts 303°
2026-05-06 12:52 58.34182 54.77216 33808 ft 476 kts 285°
2026-05-06 12:53 58.35895 54.65020 33771 ft 474 kts 286°
2026-05-06 12:53 58.37768 54.52918 33767 ft 475 kts 287°
2026-05-06 12:54 58.39713 54.40773 33766 ft 475 kts 287°
2026-05-06 12:54 58.41638 54.28730 33760 ft 475 kts 287°
2026-05-06 12:55 58.43554 54.16655 33764 ft 475 kts 287°
2026-05-06 12:55 58.45470 54.04503 33764 ft 475 kts 287°
2026-05-06 12:56 58.47348 53.92521 33760 ft 475 kts 287°
2026-05-06 12:56 58.49248 53.80331 33761 ft 475 kts 287°
2026-05-06 12:57 58.51136 53.68142 33764 ft 475 kts 287°
2026-05-06 12:57 58.53012 53.55938 33764 ft 475 kts 287°
2026-05-06 12:58 58.54860 53.43832 33759 ft 475 kts 287°
2026-05-06 12:58 58.56715 53.31585 33746 ft 475 kts 286°
2026-05-06 12:59 58.58548 53.19368 33758 ft 475 kts 286°
2026-05-06 12:59 58.60384 53.07062 33755 ft 475 kts 286°
2026-05-06 13:00 58.62197 52.94819 33763 ft 475 kts 286°
2026-05-06 13:00 58.64006 52.82517 33762 ft 475 kts 286°
2026-05-06 13:01 58.65796 52.70269 33762 ft 475 kts 286°
2026-05-06 13:01 58.67594 52.57915 33768 ft 475 kts 286°
2026-05-06 13:02 58.69357 52.45706 33859 ft 475 kts 286°
2026-05-06 13:02 58.71114 52.33444 33844 ft 476 kts 285°
2026-05-06 13:03 58.72865 52.21098 33849 ft 475 kts 285°
2026-05-06 13:03 58.74605 52.08746 33849 ft 475 kts 285°
2026-05-06 13:04 58.76331 51.96456 33850 ft 475 kts 285°
2026-05-06 13:04 58.78059 51.84071 33853 ft 475 kts 285°
2026-05-06 13:05 58.79765 51.71746 33851 ft 475 kts 285°
2026-05-06 13:05 58.81465 51.59360 33852 ft 475 kts 285°
2026-05-06 13:06 58.83149 51.46989 33852 ft 475 kts 285°
2026-05-06 13:06 58.84829 51.34558 33856 ft 475 kts 284°
2026-05-06 13:07 58.86460 51.22363 33862 ft 475 kts 284°
2026-05-06 13:07 58.88119 51.09858 33786 ft 475 kts 284°
2026-05-06 13:08 58.89742 50.97531 33706 ft 474 kts 284°
2026-05-06 13:08 58.91376 50.85010 33679 ft 473 kts 284°
2026-05-06 13:09 58.92977 50.72651 33677 ft 474 kts 284°
2026-05-06 13:09 58.94590 50.60145 33676 ft 473 kts 285°
2026-05-06 13:10 58.96483 50.47915 33668 ft 475 kts 287°
2026-05-06 13:10 58.98394 50.35625 33672 ft 474 kts 287°
2026-05-06 13:11 59.00240 50.23276 33678 ft 474 kts 285°
2026-05-06 13:11 59.02049 50.10906 33675 ft 474 kts 285°
2026-05-06 13:12 59.03853 49.98515 33676 ft 474 kts 285°
2026-05-06 13:12 59.05638 49.86171 33674 ft 474 kts 285°
2026-05-06 13:13 59.07423 49.73737 33672 ft 474 kts 285°
2026-05-06 13:13 59.09195 49.61298 33672 ft 474 kts 285°
2026-05-06 13:14 59.10966 49.48896 33669 ft 474 kts 286°
2026-05-06 13:14 59.12738 49.36489 33674 ft 474 kts 286°
2026-05-06 13:15 59.14463 49.24155 33677 ft 474 kts 285°
2026-05-06 13:15 59.16182 49.11726 33672 ft 474 kts 285°
2026-05-06 13:16 59.17893 48.99275 33674 ft 474 kts 285°
2026-05-06 13:16 59.19598 48.86768 33671 ft 474 kts 285°
2026-05-06 13:17 59.21239 48.74296 33701 ft 473 kts 282°
2026-05-06 13:17 59.22537 48.61640 33674 ft 474 kts 281°
2026-05-06 13:18 59.23843 48.48951 33669 ft 474 kts 282°
2026-05-06 13:18 59.25168 48.36251 33671 ft 474 kts 282°
2026-05-06 13:19 59.26480 48.23581 33676 ft 474 kts 281°
2026-05-06 13:19 59.27781 48.10899 33673 ft 474 kts 281°
2026-05-06 13:20 59.29074 47.98175 33671 ft 474 kts 281°
2026-05-06 13:20 59.30349 47.85500 33764 ft 474 kts 281°
2026-05-06 13:21 59.31623 47.72698 33787 ft 476 kts 281°
2026-05-06 13:21 59.32872 47.60020 33785 ft 475 kts 281°
2026-05-06 13:22 59.34115 47.47271 33790 ft 477 kts 281°
2026-05-06 13:22 59.35348 47.34491 33781 ft 474 kts 280°
2026-05-06 13:23 59.36565 47.21690 33787 ft 476 kts 280°
2026-05-06 13:23 59.37769 47.08914 33787 ft 475 kts 280°
2026-05-06 13:24 59.38959 46.96153 33789 ft 475 kts 280°
2026-05-06 13:24 59.40143 46.83312 33793 ft 475 kts 280°
2026-05-06 13:25 59.41309 46.70524 33698 ft 474 kts 280°
2026-05-06 13:25 59.42465 46.57704 33677 ft 474 kts 280°
2026-05-06 13:26 59.43610 46.44853 33670 ft 473 kts 280°
2026-05-06 13:26 59.44741 46.32007 33657 ft 474 kts 279°
2026-05-06 13:27 59.45851 46.19233 33669 ft 474 kts 279°
2026-05-06 13:27 59.46955 46.06375 33668 ft 474 kts 279°
2026-05-06 13:28 59.48049 45.93507 33673 ft 474 kts 279°
2026-05-06 13:28 59.49131 45.80608 33679 ft 474 kts 279°
2026-05-06 13:29 59.50195 45.67778 33672 ft 474 kts 279°
2026-05-06 13:29 59.51249 45.54894 33671 ft 474 kts 279°
2026-05-06 13:30 59.52221 45.42003 33696 ft 474 kts 277°
2026-05-06 13:30 59.52990 45.29099 33663 ft 473 kts 276°
2026-05-06 13:31 59.53775 45.16108 33666 ft 474 kts 277°
2026-05-06 13:31 59.54563 45.03112 33672 ft 474 kts 277°
2026-05-06 13:32 59.55336 44.90190 33739 ft 474 kts 277°
2026-05-06 13:32 59.56099 44.77224 33823 ft 475 kts 277°
2026-05-06 13:33 59.56956 44.64231 33827 ft 475 kts 278°
2026-05-06 13:33 59.57917 44.51286 33857 ft 475 kts 278°
2026-05-06 13:34 59.58845 44.38282 33847 ft 474 kts 278°
2026-05-06 13:34 59.59739 44.25411 33852 ft 474 kts 277°
2026-05-06 13:35 59.60626 44.12428 33851 ft 474 kts 277°
2026-05-06 13:35 59.61504 43.99407 33849 ft 474 kts 277°
2026-05-06 13:36 59.62364 43.86444 33850 ft 474 kts 277°
2026-05-06 13:36 59.63214 43.73442 33847 ft 474 kts 277°
2026-05-06 13:37 59.64054 43.60389 33852 ft 475 kts 277°
2026-05-06 13:37 59.64879 43.47363 33849 ft 475 kts 277°
2026-05-06 13:38 59.65681 43.34491 33850 ft 474 kts 276°
2026-05-06 13:38 59.66478 43.21463 33857 ft 475 kts 276°
2026-05-06 13:39 59.67266 43.08363 33857 ft 474 kts 276°
2026-05-06 13:39 59.68039 42.95312 33851 ft 474 kts 277°
2026-05-06 13:40 59.68796 42.82303 33854 ft 475 kts 277°
2026-05-06 13:40 59.69544 42.69242 33850 ft 474 kts 276°
2026-05-06 13:41 59.70269 42.56155 33855 ft 474 kts 276°
2026-05-06 13:41 59.70953 42.43047 33847 ft 474 kts 276°
2026-05-06 13:42 59.71624 42.30004 33838 ft 474 kts 275°
2026-05-06 13:42 59.72283 42.16925 33850 ft 475 kts 275°
2026-05-06 13:43 59.72927 42.03916 33854 ft 475 kts 275°
2026-05-06 13:43 59.73564 41.90799 33846 ft 474 kts 275°
2026-05-06 13:44 59.74182 41.77811 33850 ft 475 kts 275°
2026-05-06 13:44 59.74795 41.64635 33850 ft 475 kts 275°
2026-05-06 13:45 59.75547 41.51646 33890 ft 475 kts 280°
2026-05-06 13:45 59.77301 41.32236 33842 ft 475 kts 279°
2026-05-06 13:46 59.78365 41.19452 33849 ft 475 kts 279°
2026-05-06 13:46 59.79418 41.06444 33851 ft 474 kts 279°
2026-05-06 13:47 59.80457 40.93436 33884 ft 474 kts 279°
2026-05-06 13:47 59.81477 40.80502 33876 ft 474 kts 279°
2026-05-06 13:48 59.82487 40.67508 33878 ft 474 kts 279°
2026-05-06 13:48 59.83482 40.54546 33881 ft 474 kts 279°
2026-05-06 13:49 59.84467 40.41540 33880 ft 474 kts 279°
2026-05-06 13:49 59.85434 40.28586 33875 ft 473 kts 278°
2026-05-06 13:50 59.86397 40.15489 33882 ft 474 kts 278°
2026-05-06 13:50 59.87342 40.02472 33880 ft 474 kts 278°
2026-05-06 13:51 59.88271 39.89493 33876 ft 474 kts 278°
2026-05-06 13:51 59.89192 39.76448 33879 ft 474 kts 278°
2026-05-06 13:52 59.90105 39.63317 33879 ft 474 kts 278°
2026-05-06 13:52 59.90995 39.50347 33878 ft 474 kts 278°
2026-05-06 13:53 59.91877 39.37268 33879 ft 474 kts 278°
2026-05-06 13:53 59.92733 39.24389 33882 ft 474 kts 277°
2026-05-06 13:54 59.93586 39.11356 33877 ft 474 kts 277°
2026-05-06 13:54 59.94429 38.98280 33878 ft 474 kts 277°
2026-05-06 13:55 59.95255 38.85269 33883 ft 474 kts 277°
2026-05-06 13:55 59.96056 38.72448 33881 ft 474 kts 277°
2026-05-06 13:56 59.96854 38.59459 33876 ft 474 kts 277°
2026-05-06 13:56 59.97646 38.46357 33879 ft 474 kts 277°
2026-05-06 13:57 59.98416 38.33398 33869 ft 474 kts 276°
2026-05-06 13:57 59.99176 38.20379 33882 ft 474 kts 276°
2026-05-06 13:58 59.99921 38.07389 33886 ft 474 kts 276°
2026-05-06 13:58 60.00662 37.94264 33882 ft 474 kts 276°
2026-05-06 13:59 60.01388 37.81152 33873 ft 474 kts 276°
2026-05-06 13:59 60.02098 37.68111 33878 ft 474 kts 276°
2026-05-06 14:00 60.02797 37.55063 33878 ft 474 kts 276°
2026-05-06 14:00 60.03481 37.41975 33874 ft 474 kts 276°
2026-05-06 14:01 60.04909 37.29308 33886 ft 477 kts 286°
2026-05-06 14:01 60.06165 37.16512 33876 ft 475 kts 278°
2026-05-06 14:02 60.07024 37.03442 33893 ft 474 kts 275°
2026-05-06 14:02 60.06828 36.90445 33882 ft 476 kts 266°
2026-05-06 14:03 60.06818 36.77319 33898 ft 475 kts 273°
2026-05-06 14:03 60.07304 36.64192 33884 ft 474 kts 275°
2026-05-06 14:04 60.07881 36.51203 33884 ft 474 kts 275°
2026-05-06 14:04 60.08466 36.38059 33874 ft 474 kts 275°
2026-05-06 14:05 60.09021 36.25250 33880 ft 474 kts 275°
2026-05-06 14:05 60.09574 36.12199 33876 ft 474 kts 275°
2026-05-06 14:06 60.10087 35.99832 33875 ft 474 kts 275°
2026-05-06 14:06 60.10664 35.86277 33880 ft 474 kts 275°
2026-05-06 14:07 60.11193 35.73124 33886 ft 474 kts 275°
2026-05-06 14:07 60.11700 35.59938 33879 ft 474 kts 275°
2026-05-06 14:08 60.12194 35.46710 33878 ft 474 kts 275°
2026-05-06 14:08 60.12672 35.33544 33876 ft 474 kts 274°
2026-05-06 14:09 60.13139 35.20272 33880 ft 474 kts 274°
2026-05-06 14:09 60.13590 35.07149 33880 ft 474 kts 274°
2026-05-06 14:10 60.14030 34.93979 33904 ft 456 kts 274°
2026-05-06 14:10 60.14232 34.87810 33897 ft 442 kts 274°
2026-05-06 14:10 60.14433 34.81572 33909 ft 445 kts 274°
2026-05-06 14:11 60.14824 34.69139 33906 ft 449 kts 274°
2026-05-06 14:11 60.15206 34.56650 33629 ft 453 kts 274°
2026-05-06 14:12 60.15392 34.50404 33122 ft 450 kts 274°
2026-05-06 14:12 60.15574 34.44221 32635 ft 445 kts 274°
2026-05-06 14:12 60.15752 34.38048 32171 ft 440 kts 274°
2026-05-06 14:12 60.15922 34.32042 31699 ft 436 kts 273°
2026-05-06 14:13 60.16092 34.25990 31178 ft 432 kts 273°
2026-05-06 14:13 60.16253 34.20084 30689 ft 428 kts 273°
2026-05-06 14:13 60.16412 34.14196 30197 ft 425 kts 273°
2026-05-06 14:13 60.16569 34.08292 29699 ft 421 kts 273°
2026-05-06 14:14 60.16722 34.02475 29207 ft 417 kts 273°
2026-05-06 14:14 60.16872 33.96646 28716 ft 414 kts 273°
2026-05-06 14:14 60.17018 33.90881 28232 ft 410 kts 273°
2026-05-06 14:14 60.17160 33.85152 27751 ft 406 kts 273°
2026-05-06 14:15 60.17298 33.79505 27282 ft 402 kts 273°
2026-05-06 14:15 60.17433 33.73876 26881 ft 398 kts 273°
2026-05-06 14:15 60.17564 33.68342 26506 ft 398 kts 273°
2026-05-06 14:15 60.17693 33.62789 26142 ft 395 kts 273°
2026-05-06 14:16 60.17819 33.57218 25779 ft 393 kts 273°
2026-05-06 14:16 60.17940 33.51780 25423 ft 391 kts 273°
2026-05-06 14:16 60.18059 33.46358 25071 ft 388 kts 273°
2026-05-06 14:16 60.18176 33.40953 24723 ft 386 kts 273°
2026-05-06 14:17 60.18291 33.35496 24372 ft 384 kts 273°
2026-05-06 14:17 60.18401 33.30172 23963 ft 383 kts 272°
2026-05-06 14:17 60.18509 33.24809 23519 ft 379 kts 272°
2026-05-06 14:17 60.18614 33.19512 23069 ft 375 kts 272°
2026-05-06 14:18 60.18618 33.14356 22692 ft 371 kts 263°
2026-05-06 14:18 60.18062 33.09407 22452 ft 373 kts 252°
2026-05-06 14:18 60.17222 33.04395 22074 ft 374 kts 251°
2026-05-06 14:18 60.16397 32.99404 21593 ft 370 kts 252°
2026-05-06 14:19 60.15634 32.94490 21089 ft 367 kts 253°
2026-05-06 14:19 60.14908 32.89603 20580 ft 364 kts 253°
2026-05-06 14:19 60.14186 32.84646 20061 ft 361 kts 254°
2026-05-06 14:19 60.13487 32.79813 19558 ft 358 kts 254°
2026-05-06 14:20 60.12785 32.74956 19054 ft 355 kts 254°
2026-05-06 14:20 60.12098 32.70210 18560 ft 352 kts 254°
2026-05-06 14:20 60.11410 32.65465 18068 ft 349 kts 254°
2026-05-06 14:20 60.10728 32.60782 17583 ft 346 kts 254°
2026-05-06 14:21 60.10039 32.56067 17095 ft 342 kts 254°
2026-05-06 14:21 60.09367 32.51470 16625 ft 340 kts 254°
2026-05-06 14:21 60.08697 32.46907 16202 ft 338 kts 254°
2026-05-06 14:21 60.08031 32.42382 15952 ft 333 kts 254°
2026-05-06 14:22 60.07364 32.37866 16013 ft 339 kts 254°
2026-05-06 14:22 60.06740 32.33654 15993 ft 338 kts 253°
2026-05-06 14:22 60.06261 32.30412 15994 ft 335 kts 253°
2026-05-06 14:23 60.04731 32.20989 15999 ft 337 kts 250°
2026-05-06 14:23 60.03952 32.16523 15845 ft 340 kts 250°
2026-05-06 14:23 60.03168 32.12002 15376 ft 338 kts 251°
2026-05-06 14:23 60.02413 32.07620 14854 ft 327 kts 251°
2026-05-06 14:24 60.01687 32.03397 14329 ft 314 kts 251°
2026-05-06 14:24 60.00976 31.99264 13828 ft 302 kts 251°
2026-05-06 14:24 60.00304 31.95367 13321 ft 293 kts 251°
2026-05-06 14:24 59.99645 31.91546 12800 ft 286 kts 251°
2026-05-06 14:25 59.99005 31.87847 12278 ft 280 kts 251°
2026-05-06 14:25 59.98366 31.84160 11743 ft 275 kts 251°
2026-05-06 14:25 59.97751 31.80618 11220 ft 271 kts 251°
2026-05-06 14:25 59.97133 31.77064 10692 ft 269 kts 251°
2026-05-06 14:26 59.96515 31.73523 10177 ft 267 kts 251°
2026-05-06 14:26 59.95902 31.70013 9829 ft 267 kts 251°
2026-05-06 14:26 59.95288 31.66503 9517 ft 265 kts 251°
2026-05-06 14:26 59.94668 31.62971 9195 ft 262 kts 251°
2026-05-06 14:27 59.94063 31.59529 8876 ft 261 kts 251°
2026-05-06 14:27 59.93459 31.56095 8555 ft 259 kts 251°
2026-05-06 14:27 59.92862 31.52716 8237 ft 257 kts 251°
2026-05-06 14:27 59.92260 31.49310 7915 ft 255 kts 250°
2026-05-06 14:28 59.91671 31.45983 7599 ft 253 kts 250°
2026-05-06 14:28 59.91081 31.42655 7278 ft 251 kts 250°
2026-05-06 14:28 59.90491 31.39334 6903 ft 251 kts 250°
2026-05-06 14:28 59.89916 31.36099 6543 ft 249 kts 250°
2026-05-06 14:29 59.89332 31.32889 6084 ft 244 kts 249°
2026-05-06 14:29 59.88765 31.29782 5928 ft 224 kts 250°
2026-05-06 14:29 59.88261 31.27005 5997 ft 210 kts 250°
2026-05-06 14:29 59.87749 31.24179 6000 ft 215 kts 250°
2026-05-06 14:30 59.87281 31.21380 5995 ft 211 kts 252°
2026-05-06 14:30 59.86838 31.18504 5995 ft 213 kts 252°
2026-05-06 14:30 59.86248 31.14760 5947 ft 216 kts 252°
2026-05-06 14:30 59.85945 31.12822 5812 ft 216 kts 252°
2026-05-06 14:31 59.85495 31.09951 5602 ft 212 kts 252°
2026-05-06 14:31 59.84920 31.06289 5244 ft 203 kts 252°
2026-05-06 14:31 59.84505 31.03641 4948 ft 198 kts 252°
2026-05-06 14:31 59.84094 31.01035 4638 ft 195 kts 252°
2026-05-06 14:32 59.83824 30.99321 4434 ft 193 kts 252°
2026-05-06 14:32 59.83423 30.96782 4490 ft 194 kts 253°
2026-05-06 14:32 59.83007 30.94149 4491 ft 196 kts 253°
2026-05-06 14:32 59.82603 30.91593 4471 ft 192 kts 253°
2026-05-06 14:33 59.82187 30.88971 4492 ft 195 kts 252°
2026-05-06 14:33 59.81745 30.86444 4486 ft 193 kts 248°
2026-05-06 14:33 59.81024 30.83120 4482 ft 194 kts 249°
2026-05-06 14:33 59.80701 30.81407 4486 ft 193 kts 252°
2026-05-06 14:34 59.80277 30.78871 4483 ft 195 kts 252°
2026-05-06 14:34 59.79813 30.76311 4388 ft 196 kts 250°
2026-05-06 14:34 59.79335 30.73773 4220 ft 193 kts 250°
2026-05-06 14:34 59.78865 30.71274 4033 ft 190 kts 250°
2026-05-06 14:35 59.78399 30.68812 3762 ft 186 kts 249°
2026-05-06 14:35 59.77912 30.66492 3478 ft 182 kts 248°
2026-05-06 14:35 59.77433 30.64211 3270 ft 172 kts 249°
2026-05-06 14:35 59.77048 30.62105 3237 ft 160 kts 255°
2026-05-06 14:36 59.76833 30.59940 3221 ft 160 kts 265°
2026-05-06 14:36 59.76707 30.57026 3128 ft 161 kts 268°
2026-05-06 14:36 59.76669 30.54793 2977 ft 159 kts 269°
2026-05-06 14:36 59.76640 30.52750 2810 ft 141 kts 270°
2026-05-06 14:37 59.76728 30.50875 2467 ft 135 kts 287°
2026-05-06 14:37 59.77088 30.49194 2154 ft 133 kts 296°
2026-05-06 14:37 59.77350 30.48105 2030 ft 133 kts 295°
2026-05-06 14:37 59.77684 30.46436 1939 ft 130 kts 290°
2026-05-06 14:38 59.78030 30.44091 1804 ft 135 kts 288°
2026-05-06 14:38 59.78308 30.42354 1509 ft 131 kts 290°
2026-05-06 14:38 59.78566 30.40610 1216 ft 132 kts 288°
2026-05-06 14:38 59.78731 30.39452 1065 ft 132 kts 289°
2026-05-06 14:39 59.79077 30.37148 800 ft 133 kts 290°
2026-05-06 14:39 59.79254 30.36024 694 ft 131 kts 290°
2026-05-06 14:39 59.79597 30.33798 486 ft 131 kts 288°
2026-05-06 14:39 59.79839 30.32089 292 ft 133 kts 289°
2026-05-06 14:40 59.80006 30.30985 186 ft 129 kts 290°
2026-05-06 14:40 59.80264 30.29270 97 ft 133 kts 290°
2026-05-06 14:40 59.80503 30.27702 91 ft 103 kts 289°
2026-05-06 14:40 59.80669 30.26611 91 ft 69 kts 286°
2026-05-06 14:41 59.80785 30.25851 91 ft 49 kts 286°
2026-05-06 14:41 59.80897 30.25069 91 ft 33 kts 287°
2026-05-06 14:41 59.80944 30.24750 90 ft 23 kts 287°
2026-05-06 14:41 59.80913 30.24558 90 ft 14 kts 188°
2026-05-06 14:42 59.80834 30.24577 90 ft 7 kts 166°
2026-05-06 14:42 59.80830 30.24578 90 ft 0 kts 166°
2026-05-06 14:42 59.80829 30.24579 90 ft 0 kts 166°
2026-05-06 14:43 59.80827 30.24580 90 ft 0 kts 166°
2026-05-06 14:43 59.80817 30.24585 90 ft 3 kts 166°
2026-05-06 14:43 59.80781 30.24602 90 ft 4 kts 166°
2026-05-06 14:43 59.80752 30.24620 90 ft 4 kts 152°
2026-05-06 14:44 59.80734 30.24653 90 ft 5 kts 126°
2026-05-06 14:44 59.80715 30.24741 90 ft 7 kts 108°
2026-05-06 14:44 59.80688 30.24910 90 ft 10 kts 105°
2026-05-06 14:45 59.80642 30.25229 90 ft 13 kts 106°
2026-05-06 14:45 59.80616 30.25406 90 ft 14 kts 106°
2026-05-06 14:45 59.80597 30.25532 90 ft 14 kts 106°
2026-05-06 14:45 59.80557 30.25803 90 ft 15 kts 106°
2026-05-06 14:46 59.80526 30.26012 90 ft 16 kts 106°
2026-05-06 14:46 59.80495 30.26219 90 ft 12 kts 106°
2026-05-06 14:46 59.80471 30.26380 90 ft 9 kts 106°
2026-05-06 14:46 59.80430 30.26461 90 ft 4 kts 173°
2026-05-06 14:47 59.80407 30.26460 90 ft 5 kts 183°
2026-05-06 14:47 59.80373 30.26474 90 ft 4 kts 144°
2026-05-06 14:47 59.80357 30.26523 90 ft 4 kts 113°
2026-05-06 14:47 59.80345 30.26598 90 ft 2 kts 106°
2026-05-06 14:48 59.80344 30.26600 90 ft 0 kts 106°